1500904800.59,31056,22.88,73700.8,15.73,-12.65,-11.37,0,*48
1500904801.82,31057,22.88,73702.5,15.73,-14.19,-13.37,0,*46
1500904803.06,31058,22.88,73702.3,15.75,-13.79,-13.07,0,*4D
1500904804.26,31059,22.88,73706.8,15.77,-13.11,-12.29,0,*4D
1500904805.48,31060,22.88,73706.3,15.77,-14.89,-14.01,0,*4D
1500904806.71,31061,22.81,73700.0,15.77,-13.83,-13.23,0,*46
1500904807.96,31062,22.88,73706.8,15.77,-14.43,-13.61,0,*48
1500904809.15,31063,22.88,73706.0,15.77,-13.69,-12.97,0,*4E
1500904810.4,31064,22.88,73704.5,15.81,-14.01,-13.47,0,*45
1500904811.63,31065,22.88,73708.5,15.79,-13.73,-13.11,0,*42
1500904812.88,31066,22.88,73710.0,15.81,-13.07,-12.53,0,*42
1500904814.13,31067,22.88,73708.3,15.83,-14.05,-13.37,0,*47
1500904815.36,31068,22.88,73708.3,15.83,-13.69,-12.79,0,*4E
1500904816.61,31069,22.88,73710.3,15.85,-13.07,-12.57,0,*4D
1500904817.89,31070,22.88,73710.3,15.89,-11.73,-11.07,0,*4E
1500904819.11,31071,22.88,73712.3,15.91,-12.47,-12.07,0,*41
1500904820.31,31072,22.88,73708.3,15.95,-12.89,-12.47,0,*40
1500904821.53,31073,22.81,73704.5,15.95,-14.15,-13.79,0,*4E
1500904822.78,31074,22.88,73704.3,15.97,-13.93,-13.61,0,*4B
1500904824.0,31075,22.81,73702.3,15.97,-14.23,-13.93,0,*4B
1500904825.19,31076,22.88,73710.3,15.95,-13.93,-13.65,0,*4F
1500904826.39,31077,22.88,73704.8,15.95,-13.47,-13.19,0,*4C
1500904827.64,31078,22.88,73706.3,15.95,-12.79,-12.61,0,*41
1500904828.86,31079,22.88,73702.0,15.99,-13.43,-13.29,0,*49
1500904830.11,31080,22.88,73704.5,15.99,-13.87,-13.83,0,*47
1500904831.37,31081,22.88,73702.0,15.99,-14.01,-14.01,0,*42
1500904832.58,31082,22.88,73706.0,15.99,-14.19,-14.29,0,*42
1500904833.77,31083,22.88,73700.3,15.99,-12.97,-13.15,0,*4B
1500904834.97,31084,22.88,73698.0,16.03,-13.55,-13.93,0,*4D
1500904836.17,31085,22.88,73698.8,16.03,-12.21,-13.07,0,*43
1500904837.42,31086,22.88,73700.3,16.03,-10.63,-12.07,0,*45
1500904838.65,31087,22.88,73698.3,16.07,-10.19,-12.75,0,*48
1500904839.84,31088,22.88,73698.3,16.07,-8.67,-12.89,0,*74
1500904841.09,31089,22.88,73700.0,16.13,-5.61,-11.11,0,*79
1500904842.31,31090,22.88,73698.3,16.13,-4.41,-9.89,0,*4A
1500904843.53,31091,22.88,73696.3,16.13,-4.45,-9.31,0,*4C
1500904844.78,31092,22.88,73698.5,16.15,-4.01,-7.99,0,*45
1500904845.98,31093,22.88,73698.8,16.15,-1.71,-4.05,0,*40
1500904847.21,31094,22.88,73696.5,16.15,-3.11,-4.81,0,*4F
1500904848.46,31095,22.88,73698.3,16.17,-2.63,-3.75,0,*44
1500904849.66,31096,22.88,73696.8,16.15,-3.03,-4.17,0,*41
1500904850.87,31097,22.88,73698.3,16.17,-1.63,-2.79,0,*48
1500904852.11,31098,22.88,73696.0,16.17,-2.75,-3.23,0,*4D
1500904853.31,31099,22.88,73698.3,16.19,-3.23,-2.95,0,*4C
1500904854.56,31100,22.88,73694.8,16.21,-3.19,-3.43,0,*45
1500904855.77,31101,22.88,73692.8,16.21,-2.39,-3.03,0,*43
1500904856.96,31102,22.88,73696.8,16.23,-2.39,-2.35,0,*46
1500904858.21,31103,22.88,73696.8,16.23,-1.91,-1.39,0,*49
1500904859.42,31104,22.88,73694.3,16.27,-3.39,-1.29,0,*4B
1500904860.65,31105,22.88,73696.3,16.21,-4.93,-3.15,0,*46
1500904861.87,31106,22.88,73696.0,16.21,-1.63,-0.77,0,*78
1500904863.11,31107,22.88,73692.3,16.21,-2.51,-0.29,0,*70
1500904864.36,31108,22.88,73696.3,16.21,-5.47,-2.71,0,*40
1500904865.61,31109,22.88,73696.3,16.21,-10.15,-6.93,0,*7A
1500904866.87,31110,22.88,73692.8,16.15,-12.75,-9.45,0,*75
1500904868.11,31111,22.88,73698.5,16.15,-10.97,-9.45,0,*7A
1500904869.35,31112,22.88,73696.3,16.15,-12.07,-10.35,0,*4D
1500904870.56,31113,22.88,73698.0,16.15,-12.89,-11.11,0,*4D
1500904871.81,31114,22.88,73696.0,16.15,-12.21,-11.89,0,*49
1500904873.04,31115,22.88,73698.5,16.15,-11.51,-12.25,0,*49
1500904874.28,31116,22.88,73696.8,16.15,-14.05,-12.39,0,*43
1500904875.52,31117,22.88,73698.0,16.15,-18.59,-16.83,0,*42
1500904876.74,31118,22.88,73694.8,16.07,-18.73,-18.01,0,*42
1500904877.96,31119,22.88,73694.5,16.05,-18.83,-18.83,0,*44
1500904879.15,31120,22.88,73694.0,16.03,-18.65,-18.49,0,*46
1500904880.38,31121,22.88,73696.3,16.01,-14.37,-14.23,0,*4E
1500904881.6,31122,22.88,73694.8,16.01,-15.15,-15.07,0,*4B
1500904882.87,31123,22.88,73696.3,16.01,-17.03,-17.17,0,*4C
1500904884.08,31124,22.88,73692.8,16.01,-15.99,-16.03,0,*4E
1500904885.3,31125,22.88,73692.5,16.01,-15.15,-15.07,0,*4C
1500904886.55,31126,22.88,73692.8,16.01,-14.43,-14.37,0,*4F
1500904887.82,31127,22.88,73694.8,16.01,-14.43,-14.43,0,*4D
1500904889.07,31128,22.88,73694.5,16.03,-15.57,-15.81,0,*4B
1500904890.29,31129,22.88,73692.8,16.03,-15.71,-15.85,0,*4A
1500904891.54,31130,22.88,73694.8,16.03,-16.27,-16.31,0,*4E
1500904892.76,31131,22.88,73694.0,16.03,-18.21,-18.35,0,*4D
1500904894.02,31132,22.88,73690.8,16.01,-18.89,-19.31,0,*4B
1500904895.28,31133,22.88,73692.8,15.97,-19.99,-20.35,0,*48
1500904896.55,31134,22.88,73692.0,15.93,-17.45,-17.45,0,*47
1500904897.82,31135,22.88,73692.8,15.93,-16.13,-16.31,0,*46
1500904899.09,31136,22.88,73692.8,15.93,-14.83,-14.93,0,*44
1500904900.32,31137,22.88,73692.8,15.95,-15.25,-15.43,0,*42
1500904901.55,31138,22.88,73694.3,15.93,-14.97,-15.07,0,*43
1500904902.78,31139,22.88,73692.5,15.95,-15.39,-15.63,0,*43
1500904904.04,31140,22.88,73696.8,15.95,-14.47,-14.47,0,*42
1500904905.25,31141,22.88,73698.3,15.95,-15.07,-15.21,0,*47
1500904906.51,31142,22.88,73696.8,15.97,-14.37,-14.47,0,*45
1500904907.74,31143,22.88,73692.8,15.99,-15.25,-15.39,0,*40
1500904909.02,31144,22.88,73692.8,15.97,-14.51,-14.51,0,*44
1500904910.24,31145,22.88,73692.5,16.01,-14.29,-14.29,0,*49
1500904911.45,31146,22.88,73698.5,16.03,-14.11,-14.15,0,*4C
1500904912.7,31147,22.88,73694.3,16.05,-14.89,-15.01,0,*4E
1500904913.92,31148,22.88,73694.8,16.05,-14.19,-14.19,0,*40
1500904915.17,31149,22.88,73696.0,16.05,-14.05,-14.11,0,*44
1500904916.42,31150,22.88,73696.8,16.07,-14.83,-15.01,0,*40
1500904917.65,31151,22.88,73694.5,16.07,-14.19,-14.43,0,*45
1500904918.9,31152,22.88,73694.0,16.13,-14.93,-15.15,0,*43
1500904920.13,31153,22.88,73696.3,16.11,-14.37,-14.55,0,*4B
1500904921.37,31154,22.88,73694.8,16.13,-14.23,-14.29,0,*40
1500904922.63,31155,22.88,73694.5,16.13,-13.79,-13.69,0,*4A
1500904923.91,31156,22.88,73694.5,16.13,-13.97,-13.87,0,*49
1500904925.17,31157,22.88,73692.0,16.17,-15.21,-15.49,0,*43
1500904926.41,31158,22.88,73690.3,16.15,-15.85,-15.99,0,*4D
1500904927.62,31159,22.88,73692.5,16.15,-15.67,-15.75,0,*42
1500904928.88,31160,22.88,73692.5,16.15,-14.75,-14.75,0,*4B
1500904930.1,31161,22.88,73688.8,16.15,-15.53,-15.49,0,*41
1500904931.33,31162,22.88,73692.8,16.13,-16.45,-16.45,0,*4F
1500904932.56,31163,22.88,73690.0,16.11,-17.97,-18.11,0,*4D
1500904933.78,31164,22.88,73688.0,16.05,-18.65,-19.03,0,*4F
1500904935.02,31165,22.88,73688.0,16.01,-17.93,-18.49,0,*43
1500904936.25,31166,22.88,73692.3,15.97,-17.83,-18.45,0,*41
1500904937.45,31167,22.88,73692.3,15.95,-17.83,-18.73,0,*47
1500904938.69,31168,22.88,73692.3,15.93,-17.35,-18.55,0,*47
1500904939.94,31169,22.88,73692.3,15.85,-13.61,-15.07,0,*4E
1500904941.17,31170,22.88,73692.0,15.85,-13.15,-15.49,0,*4F
1500904942.4,31171,22.88,73694.5,15.89,-12.25,-15.71,0,*4B
1500904943.62,31172,22.88,73696.0,15.83,-14.97,-19.75,0,*45
1500904944.84,31173,22.88,73698.5,15.79,-15.29,-21.47,0,*4F
1500904946.06,31174,22.88,73698.0,15.75,-15.07,-22.53,0,*4E
1500904947.35,31175,22.88,73698.0,15.67,-13.87,-22.31,0,*46
1500904948.57,31176,22.88,73692.3,15.59,-12.39,-22.27,0,*4B
1500904949.78,31177,22.88,73694.8,15.49,-10.15,-20.73,0,*44
1500904950.98,31178,22.88,73692.3,15.47,-5.43,-15.71,0,*76
1500904952.22,31179,22.88,73694.3,15.45,-2.35,-12.15,0,*76
1500904953.41,31180,22.88,73696.0,15.43,-1.63,-11.11,0,*71
1500904954.62,31181,22.88,73700.0,15.43,-0.27,-8.59,0,*75
1500904955.81,31182,22.88,73702.5,15.39,0.05,-8.03,0,*69
1500904957.03,31183,22.88,73692.0,15.37,0.17,-8.29,0,*5D
1500904958.27,31184,22.88,73692.0,15.37,1.41,-7.61,0,*6B
1500904959.51,31185,22.88,73700.3,15.35,0.79,-7.35,0,*53
1500904960.76,31186,22.88,73700.5,15.33,1.47,-6.23,0,*6C
1500904962.0,31187,22.88,73700.5,15.29,2.51,-4.33,0,*61
1500904963.22,31188,22.88,73700.3,15.29,5.49,-0.27,0,*51
1500904964.42,31189,22.88,73696.0,15.31,7.37,2.55,0,*48
1500904965.66,31190,22.88,73696.5,15.33,6.29,1.85,0,*42
1500904966.89,31191,22.88,73696.8,15.37,7.05,3.15,0,*43
1500904968.13,31192,22.88,73698.5,15.43,8.51,5.05,0,*4A
1500904969.36,31193,22.88,73696.5,15.45,7.55,4.71,0,*44
1500904970.54,31194,22.88,73694.5,15.49,7.41,4.85,0,*41
1500904971.77,31195,22.88,73694.8,15.51,8.29,6.21,0,*44
1500904972.99,31196,22.88,73690.8,15.57,9.39,7.79,0,*4D
1500904974.19,31197,22.88,73692.8,15.59,8.83,7.59,0,*40
1500904975.46,31198,22.88,73690.5,15.63,8.89,7.95,0,*4C
1500904976.69,31199,22.88,73690.8,15.63,9.29,8.55,0,*45
1500904977.89,31200,22.88,73690.3,15.69,9.53,8.87,0,*4E
1500904979.09,31201,22.88,73688.0,15.73,9.57,9.07,0,*49
1500904980.26,31202,22.88,73690.8,15.77,8.69,8.23,0,*45
1500904981.49,31203,22.88,73688.3,15.75,8.13,7.79,0,*4B
1500904982.68,31204,22.88,73686.8,15.75,7.01,6.79,0,*41
1500904983.91,31205,22.88,73690.0,15.73,6.87,6.87,0,*48
1500904985.11,31206,22.88,73686.5,15.73,6.17,6.29,0,*46
1500904986.31,31207,22.88,73688.0,15.73,5.55,5.63,0,*4F
1500904987.52,31208,22.88,73688.5,15.71,6.03,6.11,0,*44
1500904988.73,31209,22.88,73688.3,15.67,6.33,6.33,0,*41
1500904989.99,31210,22.88,73690.3,15.67,5.89,5.73,0,*4C
1500904991.22,31211,22.88,73686.3,15.63,5.27,5.15,0,*4D
1500904992.48,31212,22.88,73686.5,15.59,4.93,4.93,0,*46
1500904993.69,31213,22.88,73688.0,15.57,5.85,5.71,0,*42
1500904994.88,31214,22.88,73686.0,15.53,4.15,3.93,0,*43
1500904996.09,31215,22.88,73690.0,15.49,3.07,2.99,0,*46
1500904997.31,31216,22.88,73690.0,15.45,3.37,3.25,0,*4C
1500904998.54,31217,22.88,73688.8,15.39,4.01,4.05,0,*41
1500904999.78,31218,22.88,73688.8,15.33,4.31,4.33,0,*42
1500905001.01,31219,22.88,73688.8,15.29,3.59,3.49,0,*4B
1500905002.25,31220,22.88,73690.8,15.27,3.15,3.03,0,*49
1500905003.45,31221,22.88,73688.0,15.23,3.97,3.85,0,*48
1500905004.66,31222,22.88,73688.8,15.17,4.49,4.37,0,*46
1500905005.86,31223,22.88,73688.8,15.15,5.45,5.33,0,*4D
1500905007.07,31224,22.88,73692.3,15.15,6.21,6.07,0,*4F
1500905008.28,31225,22.88,73692.0,15.13,6.17,5.95,0,*45
1500905009.48,31226,22.88,73690.8,15.13,6.39,6.29,0,*4E
1500905010.71,31227,22.88,73692.8,15.13,6.61,6.51,0,*4D
1500905011.92,31228,22.88,73694.5,15.13,6.43,6.33,0,*46
1500905013.18,31229,22.88,73692.8,15.11,6.53,6.43,0,*43
1500905014.4,31230,22.88,73698.0,15.11,6.53,6.79,0,*42
1500905015.6,31231,22.88,73696.0,15.09,5.99,6.13,0,*43
1500905016.78,31232,22.88,73696.0,15.09,5.23,5.49,0,*4D
1500905018.01,31233,22.88,73692.5,15.07,5.85,6.25,0,*47
1500905019.24,31234,22.88,73690.8,15.05,5.73,6.39,0,*46
1500905020.44,31235,22.88,73692.0,15.05,5.95,6.61,0,*42
1500905021.67,31236,22.88,73692.3,15.05,5.85,6.43,0,*40
1500905022.84,31237,22.88,73694.5,15.05,5.29,6.29,0,*4B
1500905024.05,31238,22.88,73694.0,15.03,5.63,6.75,0,*45
1500905025.26,31239,22.88,73690.0,15.03,5.15,6.29,0,*4C
1500905026.52,31240,22.88,73690.5,15.03,3.97,5.01,0,*47
1500905027.73,31241,22.88,73692.8,15.01,3.97,5.15,0,*41
1500905028.97,31242,22.88,73692.0,14.99,4.05,5.71,0,*4C
1500905030.15,31243,22.88,73688.8,15.01,2.91,5.49,0,*4D
1500905031.39,31244,22.88,73690.5,15.01,0.83,5.01,0,*77
1500905032.62,31245,22.88,73686.8,14.95,0.09,4.93,0,*42
1500905033.84,31246,22.88,73690.0,14.95,0.17,4.23,0,*75
1500905035.04,31247,22.88,73686.3,14.93,0.05,3.75,0,*45
1500905036.27,31248,22.88,73690.3,14.91,-0.23,3.25,0,*54
1500905037.49,31249,22.88,73692.5,14.89,-0.65,2.51,0,*5C
1500905038.74,31250,22.88,73696.0,14.87,-0.93,1.51,0,*50
1500905039.95,31251,22.88,73690.8,14.85,-1.55,0.55,0,*5D
1500905041.21,31252,22.88,73694.5,14.79,-1.47,1.25,0,*68
1500905042.46,31253,22.88,73694.0,14.75,-3.47,0.33,0,*51
1500905043.66,31254,22.88,73692.0,14.69,-4.17,-0.11,0,*74
1500905044.88,31255,22.88,73688.5,14.65,-3.79,-0.27,0,*73
1500905046.1,31256,22.88,73688.8,14.63,-3.31,-0.73,0,*7B
1500905047.31,31257,22.88,73690.0,14.57,-3.87,-0.93,0,*7E
1500905048.54,31258,22.88,73690.8,14.57,-6.23,-3.55,0,*43
1500905049.79,31259,22.88,73688.3,14.55,-6.01,-3.59,0,*4C
1500905051.03,31260,22.88,73688.3,14.49,-6.43,-4.81,0,*4F
1500905052.22,31261,22.88,73690.8,14.47,-4.05,-4.41,0,*4C
1500905053.49,31262,22.88,73692.3,14.45,-5.85,-6.27,0,*46
1500905054.71,31263,22.88,73688.0,14.43,-4.05,-5.23,0,*4F
1500905055.95,31264,22.88,73690.0,14.43,-1.43,-3.43,0,*4F
1500905057.17,31265,22.88,73690.3,14.39,1.37,-0.07,0,*6E
1500905058.4,31266,22.88,73690.8,14.39,2.55,1.21,0,*42
1500905059.66,31267,22.88,73692.3,14.37,2.55,2.51,0,*49
1500905060.9,31268,22.88,73692.5,14.37,3.03,4.37,0,*42
1500905062.14,31269,22.88,73692.0,14.37,3.59,5.55,0,*49
1500905063.34,31270,22.88,73690.8,14.39,1.97,4.49,0,*43
1500905064.55,31271,22.88,73688.5,14.35,0.79,3.89,0,*74
1500905065.81,31272,22.88,73686.3,14.33,1.63,5.05,0,*49
1500905067.02,31273,22.88,73684.5,14.33,3.29,5.41,0,*44
1500905068.21,31274,22.88,73688.5,14.31,4.33,5.23,0,*49
1500905069.44,31275,22.88,73690.8,14.31,5.51,6.51,0,*4B
1500905070.67,31276,22.88,73694.5,14.33,5.41,6.53,0,*49
1500905071.85,31277,22.88,73690.3,14.35,4.81,5.99,0,*46
1500905073.07,31278,22.88,73688.0,14.33,5.41,6.57,0,*43
1500905074.3,31279,22.88,73686.8,14.31,5.51,6.91,0,*4B
1500905075.51,31280,22.88,73692.0,14.31,5.73,7.29,0,*4F
1500905076.7,31281,22.88,73690.0,14.35,6.11,7.79,0,*48
1500905077.88,31282,22.88,73686.8,14.31,5.59,7.45,0,*4F
1500905079.07,31283,22.88,73686.5,14.35,6.03,7.79,0,*49
1500905080.32,31284,22.88,73688.5,14.33,5.51,7.15,0,*46
1500905081.51,31285,22.88,73686.8,14.31,6.25,7.37,0,*45
1500905082.77,31286,22.88,73688.5,14.33,7.11,7.95,0,*4A
1500905084.0,31287,22.88,73690.8,14.35,7.61,8.29,0,*42
1500905085.24,31288,22.88,73688.8,14.37,8.05,8.55,0,*49
1500905086.47,31289,22.88,73688.8,14.37,8.05,8.51,0,*4C
1500905087.67,31290,22.88,73690.3,14.39,7.87,8.09,0,*42
1500905088.9,31291,22.88,73692.0,14.39,7.23,7.47,0,*48
1500905090.16,31292,22.88,73690.8,14.41,7.87,8.13,0,*44
1500905091.38,31293,22.88,73690.3,14.41,8.09,8.33,0,*4E
1500905092.62,31294,22.88,73692.0,14.45,9.33,9.49,0,*49
1500905093.79,31295,22.88,73694.3,14.47,9.29,9.29,0,*47
1500905095.0,31296,22.88,73692.5,14.49,9.33,9.47,0,*49
1500905096.23,31297,22.88,73694.3,14.49,9.15,9.21,0,*4C
1500905097.48,31298,22.88,73690.8,14.55,8.29,8.41,0,*47
1500905098.71,31299,22.88,73694.5,14.59,8.45,8.55,0,*45
1500905099.95,31300,22.88,73694.5,14.59,8.33,8.45,0,*44
1500905101.15,31301,22.88,73692.5,14.61,7.51,7.91,0,*43
1500905102.34,31302,22.88,73694.5,14.61,6.29,6.97,0,*49
1500905103.53,31303,22.88,73692.5,14.61,6.03,7.01,0,*4E
1500905104.74,31304,22.88,73696.8,14.61,4.79,5.63,0,*40
1500905105.92,31305,22.88,73692.8,14.61,4.11,4.53,0,*4D
1500905107.16,31306,22.88,73696.5,14.59,3.97,3.81,0,*44
1500905108.39,31307,22.88,73692.5,14.59,5.45,4.79,0,*4C
1500905109.6,31308,22.88,73698.3,14.61,6.43,5.59,0,*4E
1500905110.81,31309,22.88,73694.0,14.61,7.19,6.21,0,*4D
1500905112.03,31310,22.88,73696.3,14.63,7.37,6.57,0,*4A
1500905113.24,31311,22.88,73696.0,14.63,8.15,7.59,0,*4B
1500905114.47,31312,22.88,73696.3,14.65,8.97,8.51,0,*43
1500905115.69,31313,22.88,73698.3,14.65,8.71,8.29,0,*45
1500905116.89,31314,22.88,73696.0,14.67,8.83,8.65,0,*45
1500905118.12,31315,22.88,73694.3,14.67,9.15,9.03,0,*4B
1500905119.37,31316,22.88,73696.8,14.67,8.71,8.75,0,*4B
1500905120.6,31317,22.88,73692.0,14.69,9.01,9.11,0,*41
1500905121.84,31318,22.88,73698.5,14.71,9.01,9.47,0,*44
1500905123.05,31319,22.88,73696.0,14.75,8.23,8.83,0,*49
1500905124.3,31320,22.88,73694.3,14.75,8.33,8.89,0,*48
1500905125.51,31321,22.88,73696.5,14.75,7.33,8.01,0,*46
1500905126.76,31322,22.88,73696.0,14.71,6.87,7.65,0,*42
1500905127.99,31323,22.88,73694.3,14.75,6.65,7.33,0,*48
1500905129.22,31324,22.88,73694.0,14.69,6.17,6.61,0,*41
1500905130.45,31325,22.88,73694.5,14.71,6.53,7.05,0,*4A
1500905131.66,31326,22.88,73694.8,14.69,6.33,6.87,0,*4D
1500905132.92,31327,22.88,73692.8,14.67,6.47,6.91,0,*46
1500905134.13,31328,22.88,73694.0,14.65,4.97,5.33,0,*4F
1500905135.31,31329,22.88,73692.5,14.61,5.15,5.71,0,*47
1500905136.52,31330,22.88,73694.3,14.57,5.11,5.73,0,*4C
1500905137.76,31331,22.88,73694.8,14.57,4.31,5.01,0,*4B
1500905138.96,31332,22.88,73690.8,14.53,4.15,5.19,0,*43
1500905140.16,31333,22.88,73692.3,14.47,4.85,5.93,0,*4C
1500905141.41,31334,22.88,73690.3,14.49,4.93,6.17,0,*4D
1500905142.63,31335,22.88,73688.8,14.49,4.45,5.85,0,*4F
1500905143.85,31336,22.88,73698.0,14.47,3.67,5.07,0,*4F
1500905145.08,31337,22.88,73694.8,14.47,2.55,4.05,0,*4D
1500905146.28,31338,22.88,73696.5,14.45,0.97,2.65,0,*7C
1500905147.51,31339,22.88,73696.0,14.43,0.91,2.85,0,*73
1500905148.69,31340,22.88,73698.3,14.39,-0.07,2.65,0,*6C
1500905149.9,31341,22.88,73692.5,14.39,-1.55,1.51,0,*6F
1500905151.08,31342,22.88,73694.3,14.39,-2.83,-0.81,0,*75
1500905152.31,31343,22.88,73698.0,14.35,-3.47,-1.67,0,*48
1500905153.53,31344,22.88,73696.3,14.31,-9.41,-5.39,0,*48
1500905154.74,31345,22.88,73696.3,14.31,-17.35,-11.11,0,*4A
1500905156.0,31346,22.88,73692.3,14.25,-14.37,-11.77,0,*4D
1500905157.25,31347,22.88,73694.5,14.21,-13.73,-11.77,0,*4F
1500905158.45,31348,22.88,73698.5,14.17,-15.07,-11.19,0,*48
1500905159.66,31349,22.88,73692.0,14.09,-19.37,-15.07,0,*42
1500905160.88,31350,22.88,73692.0,14.03,-18.69,-14.37,0,*48
1500905162.17,31351,22.88,73692.3,13.99,-16.23,-11.63,0,*49
1500905163.41,31352,22.88,73692.8,13.97,-14.93,-10.71,0,*4F
1500905164.64,31353,22.88,73692.8,13.91,-9.79,-7.23,0,*41
1500905165.88,31354,22.88,73694.8,13.91,-6.05,-2.47,0,*45
1500905167.11,31355,22.88,73694.5,13.87,-6.43,-2.07,0,*45
1500905168.32,31356,22.88,73696.5,13.87,-6.63,-2.31,0,*41
1500905169.57,31357,22.88,73694.8,13.81,-6.43,-2.55,0,*46
1500905170.76,31358,22.88,73696.8,13.79,-5.35,-2.39,0,*46
1500905171.98,31359,22.88,73692.8,13.77,-4.53,-1.71,0,*47
1500905173.24,31360,22.88,73698.8,13.73,-5.23,-1.63,0,*4C
1500905174.48,31361,22.88,73694.5,13.73,-4.33,-0.85,0,*74
1500905175.72,31362,22.88,73698.0,13.73,-4.99,0.47,0,*54
1500905176.96,31363,22.88,73692.0,13.73,-9.75,-0.85,0,*79
1500905178.21,31364,22.88,73694.0,13.73,-13.33,-3.31,0,*7B
1500905179.46,31365,22.88,73692.0,13.73,-11.55,-3.87,0,*75
1500905180.75,31366,22.88,73690.3,13.73,-11.29,-5.27,0,*71
1500905181.97,31367,22.88,73690.0,13.69,-7.53,-3.79,0,*4C
1500905183.22,31368,22.88,73694.5,13.69,-7.43,-2.95,0,*41
1500905184.48,31369,22.88,73696.3,13.65,-7.61,-3.55,0,*41
1500905185.73,31370,22.88,73696.5,13.65,-5.81,-1.59,0,*4B
1500905186.97,31371,22.88,73696.3,13.65,-5.69,-0.53,0,*77
1500905188.24,31372,22.88,73700.8,13.65,-5.03,-0.89,0,*7F
1500905189.47,31373,22.88,73696.3,13.67,-5.85,-2.99,0,*41
1500905190.68,31374,22.88,73702.5,13.71,-5.73,-4.25,0,*49
1500905191.92,31375,22.88,73704.8,13.75,-4.73,-3.63,0,*48
1500905193.14,31376,22.88,73706.5,13.75,-9.11,-8.17,0,*4A
1500905194.39,31377,22.88,73700.5,13.85,-11.97,-9.75,0,*76
1500905195.6,31378,22.88,73706.0,13.89,-12.97,-11.19,0,*45
1500905196.8,31379,22.88,73702.0,13.93,-11.11,-9.89,0,*72
1500905198.04,31380,22.88,73696.0,13.97,-12.93,-11.63,0,*44
1500905199.26,31381,22.88,73696.3,13.97,-11.51,-10.09,0,*45
1500905200.49,31382,22.88,73692.3,14.01,-13.47,-10.75,0,*40
1500905201.72,31383,22.88,73696.5,14.05,-13.73,-12.53,0,*44
1500905202.95,31384,22.88,73696.5,14.09,-13.33,-12.29,0,*46
1500905204.2,31385,22.88,73694.5,14.11,-12.97,-11.37,0,*4D
1500905205.43,31386,22.88,73692.0,14.13,-14.11,-12.15,0,*47
1500905206.63,31387,22.88,73694.0,14.17,-15.67,-14.61,0,*47
1500905207.84,31388,22.88,73690.5,14.17,-14.11,-13.51,0,*4C
1500905209.12,31389,22.88,73688.5,14.19,-13.01,-12.71,0,*46
1500905210.37,31390,22.88,73688.5,14.21,-13.33,-13.07,0,*44
1500905211.65,31391,22.88,73698.0,14.21,-15.01,-14.93,0,*48
1500905212.85,31392,22.88,73696.0,14.23,-14.23,-13.69,0,*4A
1500905214.08,31393,22.88,73694.3,14.25,-14.37,-14.33,0,*40
1500905215.32,31394,22.88,73692.8,14.27,-14.05,-14.23,0,*45
1500905216.53,31395,22.88,73692.3,14.31,-13.69,-14.19,0,*47
1500905217.78,31396,22.88,73692.0,14.35,-13.37,-14.01,0,*42
1500905219.05,31397,22.88,73692.8,14.33,-14.11,-14.97,0,*49
1500905220.27,31398,22.88,73694.3,14.33,-12.97,-14.11,0,*40
1500905221.54,31399,22.88,73698.5,14.37,-12.93,-14.47,0,*42
1500905222.78,31400,22.88,73696.0,14.41,-12.43,-14.43,0,*4D
1500905224.03,31401,22.88,73698.5,14.41,-13.47,-15.89,0,*4E
1500905225.29,31402,22.88,73692.8,14.43,-13.83,-16.51,0,*41
1500905226.54,31403,22.88,73692.3,14.41,-11.37,-14.61,0,*4E
1500905227.75,31404,22.88,73698.3,14.43,-10.97,-14.65,0,*44
1500905228.98,31405,22.88,73692.0,14.47,-10.15,-14.47,0,*4B
1500905230.2,31406,22.88,73696.5,14.47,-8.67,-13.37,0,*74
1500905231.44,31407,22.88,73694.8,14.49,-9.45,-14.61,0,*7E
1500905232.66,31408,22.88,73692.5,14.49,-9.67,-15.67,0,*76
1500905233.88,31409,22.88,73696.5,14.49,-6.59,-13.43,0,*75
1500905235.1,31410,22.88,73696.8,14.49,-4.65,-12.29,0,*7D
1500905236.32,31411,22.88,73698.0,14.55,-3.11,-11.45,0,*7C
1500905237.6,31412,22.88,73698.0,14.59,-1.35,-10.41,0,*72
1500905238.83,31413,22.88,73696.5,14.65,0.13,-9.49,0,*54
1500905240.08,31414,22.88,73694.8,14.67,0.55,-9.45,0,*5F
1500905241.34,31415,22.88,73696.0,14.71,2.55,-7.65,0,*67
1500905242.53,31416,22.88,73696.3,14.77,4.11,-6.01,0,*67
1500905243.78,31417,22.88,73698.0,14.83,5.27,-4.77,0,*6A
1500905245.02,31418,22.88,73696.3,14.89,6.47,-3.47,0,*6E
1500905246.23,31419,22.88,73692.8,14.93,7.11,-2.23,0,*65
1500905247.47,31420,22.88,73696.3,14.95,7.37,-1.95,0,*63
1500905248.65,31421,22.88,73696.5,15.01,7.37,-1.75,0,*60
1500905249.88,31422,22.88,73694.3,15.03,6.29,-2.35,0,*68
1500905251.13,31423,22.88,73690.8,15.03,8.37,0.79,0,*7F
1500905252.37,31424,22.88,73690.8,15.05,9.15,2.17,0,*45
1500905253.6,31425,22.88,73692.3,15.11,6.97,0.17,0,*76
1500905254.78,31426,22.88,73694.3,15.09,4.89,-1.29,0,*60
1500905255.98,31427,22.88,73694.5,15.05,5.63,0.37,0,*7B
1500905257.19,31428,22.88,73698.8,15.01,7.29,2.85,0,*47
1500905258.4,31429,22.88,73698.0,15.01,8.51,4.89,0,*4C
1500905259.66,31430,22.88,73698.5,15.03,8.37,5.51,0,*42
1500905260.88,31431,22.88,73694.5,15.05,7.09,4.71,0,*44
1500905262.11,31432,22.88,73692.0,15.05,7.19,5.81,0,*48
1500905263.3,31433,22.88,73694.0,15.05,7.29,6.21,0,*43
1500905264.5,31434,22.88,73698.3,15.03,7.59,7.01,0,*46
1500905265.77,31435,22.88,73698.8,15.03,7.23,6.91,0,*42
1500905267.02,31436,22.88,73696.8,15.03,7.65,7.47,0,*49
1500905268.23,31437,22.88,73694.5,15.03,8.09,8.09,0,*48
1500905269.44,31438,22.88,73698.5,15.01,7.77,7.97,0,*4B
1500905270.65,31439,22.88,73696.8,15.01,6.93,7.15,0,*4B
1500905271.86,31440,22.88,73694.3,14.99,7.41,7.55,0,*4F
1500905273.09,31441,22.88,73698.0,14.99,7.51,7.65,0,*4C
1500905274.34,31442,22.88,73692.5,14.99,7.61,7.87,0,*40
1500905275.58,31443,22.88,73692.8,14.95,6.13,6.33,0,*47
1500905276.81,31444,22.88,73690.3,14.95,5.67,5.77,0,*43
1500905278.06,31445,22.88,73692.0,14.91,6.39,6.57,0,*4F
1500905279.27,31446,22.88,73692.8,14.89,6.65,6.75,0,*4C
1500905280.5,31447,22.88,73694.8,14.87,6.91,7.05,0,*4E
1500905281.68,31448,22.88,73694.8,14.85,6.75,6.79,0,*43
1500905282.88,31449,22.88,73692.0,14.85,6.91,6.97,0,*48
1500905284.13,31450,22.88,73688.0,14.83,6.53,6.65,0,*45
1500905285.34,31451,22.88,73692.5,14.81,6.87,6.97,0,*42
1500905286.57,31452,22.88,73688.3,14.79,7.55,7.65,0,*44
1500905287.78,31453,22.88,73690.8,14.79,7.97,8.01,0,*46
1500905289.01,31454,22.88,73688.0,14.79,7.91,7.97,0,*47
1500905290.21,31455,22.88,73686.8,14.79,7.45,7.55,0,*41
1500905291.42,31456,22.88,73688.5,14.81,8.09,8.13,0,*4F
1500905292.63,31457,22.88,73688.5,14.77,7.79,7.87,0,*4D
1500905293.86,31458,22.88,73688.5,14.79,8.19,8.41,0,*40
1500905295.09,31459,22.88,73684.8,14.77,8.37,8.47,0,*45
1500905296.33,31460,22.88,73686.3,14.77,8.47,8.55,0,*4B
1500905297.58,31461,22.88,73688.5,14.79,8.51,8.59,0,*4F
1500905298.82,31462,22.88,73684.3,14.79,8.55,8.65,0,*47
1500905300.05,31463,22.88,73688.3,14.79,8.55,8.65,0,*46
1500905301.3,31464,22.88,73688.5,14.79,8.29,8.33,0,*49
1500905302.54,31465,22.88,73688.0,14.81,7.73,7.77,0,*40
1500905303.77,31466,22.88,73688.0,14.79,7.45,7.61,0,*46
1500905304.95,31467,22.88,73686.8,14.77,7.37,7.59,0,*47
1500905306.2,31468,22.88,73688.8,14.79,8.13,8.29,0,*47
1500905307.41,31469,22.88,73688.3,14.77,7.83,7.97,0,*44
1500905308.62,31470,22.88,73688.0,14.77,7.59,7.69,0,*4A
1500905309.87,31471,22.88,73688.0,14.75,7.83,7.83,0,*4A